Regional Weather Roundup
Issued by NWS

Home | Current Version | Previous Version | Text Only | Print | Product List | Glossary Off
Versions: 1 2 3 4 5 6 7 8 9 10 11 12 13 14 15 16 17 18 19 20 21 22 23 24 25 26 27 28 29 30 31 32 33 34 35 36 37 38 39 40 41 42 43 44 45 46 47 48 49 50

000
ASUS43 KMKX 281359
RWRWI

WISCONSIN REGIONAL WEATHER ROUNDUP
NATIONAL WEATHER SERVICE MILWAUKEE/SULLIVAN WI
900 AM CDT SAT MAR 28 2015

NOTE: "FAIR" INDICATES FEW OR NO CLOUDS BELOW 12,000 FEET WITH NO
SIGNIFICANT WEATHER AND/OR OBSTRUCTIONS TO VISIBILITY.

WIZ001-002-006>008-014>016-023>028-281500-
NORTHWEST WISCONSIN

CITY           SKY/WX    TMP DP  RH WIND       PRES   REMARKS
SUPERIOR ARPT  SUNNY     20  15  82 W3        30.26R
ASHLAND        SUNNY     24  15  68 S3        30.25F
HAYWARD        SUNNY     23  13  65 CALM      30.23S
SIREN          SUNNY     24  16  72 CALM      30.25R
CUMBERLAND     SUNNY     25  18  74 S5        30.24R WCI  19
RICE LAKE      SUNNY     22  17  81 SE5       30.27R WCI  16
CHETEK         SUNNY     21  17  84 CALM      30.26S
LADYSMITH      SUNNY     25  18  75 CALM      30.26S
EAU CLAIRE     NOT AVBL
MENOMONIE      SUNNY     26  18  72 CALM      30.27S
NEW RICHMOND   SUNNY     26  14  62 S5        30.26R WCI  20
OSCEOLA        SUNNY     27  17  66 S3        30.29R
$$

WIZ003>005-009-010-017-018-281500-
NORTH CENTRAL WISCONSIN

CITY           SKY/WX    TMP DP  RH WIND       PRES   REMARKS
MANITOWISH WTR SUNNY     16  10  77 S3        30.21S
ARBOR VITAE    SUNNY     15   8  72 S3        30.22S
WOODRUFF       SUNNY     15   8  72 S3        30.22S
RHINELANDER    SUNNY     20   9  62 SW5       30.23S WCI  13
EAGLE RIVER    SUNNY      9   3  75 CALM      30.22S
LAND O LAKES   SUNNY     12   6  76 CALM      30.22F
PHILLIPS       SUNNY     21  12  68 CALM      30.22S
TOMAHAWK       SUNNY     17  11  78 CALM      30.24S
MEDFORD        SUNNY     20  13  74 S3        30.24R
MERRILL        SUNNY     16  10  77 CALM      30.25S
$$

WIZ029-030-035-036-043>047-281500-
CENTRAL WISCONSIN

CITY           SKY/WX    TMP DP  RH WIND       PRES   REMARKS
WAUSAU         SUNNY     19  12  74 SE3       30.26R
MOSINEE        SUNNY     19  12  73 VRB3      30.28R
MARSHFIELD     SUNNY     25  16  68 S3        30.27R
STEVENS POINT  SUNNY     19  11  71 CALM      30.29R
WAUPACA        SUNNY     26  17  68 S5        30.31S WCI  20
WAUTOMA        NOT AVBL
WISC RAPIDS    SUNNY     23  11  60 VRB3      30.31R
CAMP DOUGLAS   NOT AVBL
$$

WIZ011>013-019>022-031-037>040-048>050-281500-
NORTHEAST WISCONSIN

CITY           SKY/WX    TMP DP  RH WIND       PRES   REMARKS
ANTIGO         SUNNY     19  11  71 S6        30.25R WCI  10
SHAWANO        SUNNY     19  14  81 CALM      30.31S
OCONTO         SUNNY     21  13  72 CALM      30.33R
STURGEON BAY   SUNNY     21  10  63 SE3       30.34S
GREEN BAY      SUNNY     23  14  68 S3        30.33R
MANITOWOC      NOT AVBL
APPLETON       SUNNY     23  16  74 VRB3      30.31R
CLINTONVILLE   SUNNY     23  16  74 S5        30.31R WCI  17
OSHKOSH        SUNNY     25  15  66 SE5       30.32R WCI  19
$$

WIZ032>034-041-042-053>061-281500-
SOUTHWEST WISCONSIN

CITY           SKY/WX    TMP DP  RH WIND       PRES   REMARKS
LA CROSSE      SUNNY     27  18  69 SE7       30.30R WCI  19
SPARTA         SUNNY     20  14  78 CALM      30.30R
VIROQUA        SUNNY     24  14  65 SW5       30.27R WCI  18
BOSCOBEL       SUNNY     23  17  78 CALM      30.33R
PRAIRIE DU CHI SUNNY     19  11  73 CALM      30.31R
PLATTEVILLE    SUNNY     24  19  80 S6        30.29R WCI  17
$$

WIZ056-057-062-063-064-067-068-281500-
SOUTH CENTRAL WISCONSIN

CITY           SKY/WX    TMP DP  RH WIND       PRES   REMARKS
REEDSBURG      SUNNY     23  16  72 S5        30.29R WCI  17
BARABOO/DELLS  SUNNY     25  15  67 W3        30.29R
LONE ROCK      NOT AVBL
MINERAL POINT  SUNNY     21  16  79 SE6       30.28R WCI  14
MADISON        MOSUNNY   25  15  66 S6        30.31R WCI  18
MIDDLETON      SUNNY     27  16  63 S5        30.31R WCI  21
WATERTOWN      SUNNY     23  17  76 CALM      30.31R
MONROE         SUNNY     23  18  80 S6        30.29R WCI  16
JANESVILLE     SUNNY     25  18  74 CALM      30.31R
$$

WIZ051-052-058>065-066-070>072-281500-
SOUTHEAST WISCONSIN

CITY           SKY/WX    TMP DP  RH WIND       PRES   REMARKS
MILWAUKEE      MOSUNNY   26  16  65 CALM      30.33R
WAUKESHA       SUNNY     23  16  74 CALM      30.32R
MILWAUKEE/TIMM SUNNY     25  16  68 CALM      30.33R
RACINE         SUNNY     27  15  61 VRB3      30.34R
BURLINGTON     SUNNY     22  16  80 N5        30.32R WCI  15
KENOSHA        SUNNY     26  17  68 VRB5      30.32R WCI  20
FOND DU LAC    SUNNY     25  16  68 SE3       30.32R
SHEBOYGAN      SUNNY     26  16  65 NW3       30.32R
WEST BEND      SUNNY     23  18  80 CALM      30.31R
JUNEAU         SUNNY     23  16  77 CALM      30.32R
$$

LSZ147-162-281500-
LAKE SUPERIOR

STATION/POSITION TIME  TEMP    WIND        PRES    WAVE
                       AIR SEA DIR/SP/G            HT/PER
                 (UTC) (F)     (DEG/KT/KT) (MB)    (FT/S)
DEVILS ISLAND    1300   25     170/  4/  4 1025.6R
PORT WING        1300   17     140/  2/  4 1024.7R
SAXON HARBOR     1200   12      CALM  /  5 1024.4R
$$

LMZ867-665-643>646-281500-
LAKE MICHIGAN

STATION/POSITION TIME  TEMP    WIND        PRES    WAVE
                       AIR SEA DIR/SP/G            HT/PER
                 (UTC) (F)     (DEG/KT/KT) (MB)    (FT/S)
NORTHPORT PIER   1322   21     320/  4/  5 1027.1R
SISTER BAY       1347             CALM       N/A
KEWAUNEE LAKESHO 1300   20     290/  1/  3 1025.5R
SHEBOYGAN LAKESH 1300   23     330/  5/  6 1027.7R
PORT WASHINGTON  1300   23     320/  5/  7 1027.1R
MILWAUKEE LAKESH 1300   23     300/  4/  5   N/A
KENOSHA   LAKESH 1300   24      30/  1/  5 1026.1R
$$

TC  - TEMPERATURE IN CELSIUS
VSB - VISIBILITY IN STATUTE MILES
WCI - WIND CHILL INDEX
HX  - HEAT INDEX




USA.gov is the U.S. government's official web portal to all federal, state and local government web resources and services.